This is the latest recevied weather packets stored in our database for station/object KI4NG. If no packets are shown the sender has not sent any weather packets the latest 10 day(s).
| Time | Temp. | Humidity | Pressure | Rain* | Wind** | Luminosity | Snow |
|---|---|---|---|---|---|---|---|
| 1777731306 | 11.67° C | 64% | 1017.3 hPa | 0 mm | - | 577 W/m² | - |
| 1777731003 | 11.11° C | 59% | 1017.1 hPa | 0 mm | - | 596 W/m² | - |
| 1777730702 | 11.11° C | 62% | 1017.2 hPa | 0 mm | - | 591 W/m² | - |
| 1777730397 | 11.67° C | 65% | 1017.5 hPa | 0 mm | - | 504 W/m² | - |
| 1777730093 | 11.11° C | 64% | 1017.3 hPa | 0 mm | - | 484 W/m² | - |
| 1777729790 | 11.11° C | 63% | 1017.3 hPa | 0 mm | - | 478 W/m² | - |
| 1777729487 | 10.56° C | 64% | 1017.3 hPa | 0 mm | - | 390 W/m² | - |
| 1777729184 | 10° C | 69% | 1017.2 hPa | 0 mm | - | 339 W/m² | - |
| 1777728880 | 10° C | 70% | 1017.1 hPa | 0 mm | - | 339 W/m² | - |
| 1777728577 | 10.56° C | 69% | 1017.3 hPa | 0 mm | - | 369 W/m² | - |
| 1777728274 | 10.56° C | 73% | 1017.2 hPa | 0 mm | - | 347 W/m² | - |
| 1777727972 | 10° C | 77% | 1017.3 hPa | 0 mm | - | 323 W/m² | - |
| 1777727668 | 9.44° C | 76% | 1017.2 hPa | 0 mm | - | 304 W/m² | - |
| 1777727365 | 9.44° C | 77% | 1017.1 hPa | 0 mm | - | 148 W/m² | - |
| 1777727062 | 8.89° C | 78% | 1017.1 hPa | 0 mm | - | 282 W/m² | - |
| 1777726760 | 8.89° C | 80% | 1017 hPa | 0 mm | - | 200 W/m² | - |
| 1777726457 | 8.33° C | 83% | 1017 hPa | 0 mm | - | 236 W/m² | - |
| 1777726154 | 8.33° C | 82% | 1016.8 hPa | 0 mm | - | 151 W/m² | - |
| 1777725850 | 7.78° C | 86% | 1016.9 hPa | 0 mm | - | 209 W/m² | - |
| 1777725549 | 7.22° C | 87% | 1016.8 hPa | 0 mm | - | 206 W/m² | - |
| 1777725245 | 6.67° C | 89% | 1016.6 hPa | 0 mm | - | 138 W/m² | - |
| 1777724943 | 6.67° C | 89% | 1017.2 hPa | 0 mm | - | 97 W/m² | - |
| 1777724638 | 6.11° C | 89% | 1016.8 hPa | 0 mm | - | 60 W/m² | - |
| 1777724336 | 6.11° C | 91% | 1016.7 hPa | 0 mm | - | 53 W/m² | - |
| 1777724034 | 5.56° C | 92% | 1016.8 hPa | 0 mm | - | 48 W/m² | - |
* Rain latest hour (hover to see other rain measurements)
** Current wind speed in m/s (hover to see current wind gust speed)